Date,TemperatureHighF,TemperatureAvgF,TemperatureLowF,DewpointHighF,DewpointAvgF,DewpointLowF,HumidityHigh,HumidityAvg,HumidityLow,PressureMaxIn,PressureMinIn,WindSpeedMaxMPH,WindSpeedAvgMPH,GustSpeedMaxMPH,PrecipitationSumIn
2013-3-1,40.5,31.7,25.9,28.4,25.6,23.0,90,79,61,29.95,29.87,9,2,10,0.00
2013-3-2,41.2,30.7,23.4,30.0,24.6,17.8,95,79,52,29.93,29.85,12,1,14,0.06
2013-3-3,41.2,26.7,19.4,19.6,16.1,12.9,82,66,35,30.00,29.90,21,2,21,0.00
2013-3-4,48.4,33.4,19.8,25.7,18.4,12.4,78,56,35,30.17,30.00,12,1,12,0.00
2013-3-5,47.1,40.5,30.6,46.4,35.4,25.0,98,83,57,30.12,29.64,16,2,20,0.80
2013-3-6,36.1,28.1,21.9,27.9,23.2,17.8,93,82,69,30.15,29.63,26,3,26,0.01
2013-3-7,53.6,36.5,24.4,34.7,27.0,21.7,91,71,45,30.25,30.12,11,2,11,0.00
2013-3-8,56.1,42.6,31.3,29.3,20.2,5.2,69,43,21,30.27,30.20,8,2,8,0.00
2013-3-9,57.4,45.2,36.5,31.5,24.4,6.4,53,44,22,30.29,30.22,8,1,8,0.00
2013-3-10,61.2,49.4,42.6,36.5,32.0,27.3,64,51,38,30.25,30.13,10,1,10,0.00
2013-3-11,49.8,46.3,43.5,49.5,44.8,35.2,99,95,63,30.14,29.81,10,1,13,1.90
2013-3-12,59.4,48.0,36.3,49.5,36.8,16.3,99,71,24,29.98,29.73,10,2,15,0.33
2013-3-13,45.3,35.7,26.2,28.9,22.6,16.7,77,60,34,30.15,29.97,15,2,20,0.00
2013-3-14,49.3,32.5,21.4,23.9,15.1,5.9,79,52,20,30.31,30.14,11,2,11,0.00
2013-3-15,66.0,47.8,32.7,40.8,31.3,10.8,79,55,28,30.22,29.95,13,2,15,0.00
2013-3-16,74.1,59.7,51.4,46.6,42.4,39.2,67,54,32,29.95,29.74,12,2,12,0.00
2013-3-17,69.3,57.7,51.4,49.6,45.4,41.0,84,64,40,29.91,29.80,12,1,12,0.00
2013-3-18,51.3,43.6,39.7,46.6,42.3,38.8,98,95,84,29.96,29.82,8,1,9,0.41
2013-3-19,57.0,46.0,36.5,44.6,28.4,12.9,97,57,20,30.04,29.83,13,2,18,0.00
2013-3-20,52.7,39.3,31.1,28.4,13.5,4.8,87,36,16,30.08,29.83,11,2,13,0.00
2013-3-21,41.4,29.8,20.5,27.5,11.4,4.8,87,48,27,29.96,29.70,18,3,18,0.00
2013-3-22,40.8,31.9,23.7,28.0,18.3,11.1,67,57,47,30.08,29.96,7,1,7,0.00
2013-3-23,55.8,43.2,38.3,48.2,39.3,27.3,97,86,64,30.06,29.86,6,1,7,0.06
2013-3-24,43.5,40.3,36.0,42.4,39.4,35.4,98,97,90,29.90,29.49,9,1,9,1.28
2013-3-25,36.3,30.8,25.0,35.6,24.5,19.4,98,78,60,29.91,29.51,18,3,20,0.01
2013-3-26,38.8,29.3,23.4,27.3,22.6,19.8,90,76,57,30.22,29.90,11,2,15,0.00
2013-3-27,51.6,35.0,23.4,22.1,19.6,13.5,83,58,24,30.28,30.19,15,2,15,0.00
2013-3-28,55.2,38.9,26.6,22.3,17.8,7.5,78,48,15,30.31,30.20,12,2,13,0.00
2013-3-29,53.4,40.7,34.0,37.4,26.3,16.5,93,59,34,30.32,30.21,8,1,10,0.03
2013-3-30,59.7,47.7,39.9,43.9,39.5,37.0,93,75,52,30.22,30.05,10,1,10,0.06
2013-3-31,60.4,51.1,45.7,53.2,48.1,43.2,98,90,64,30.04,29.81,10,1,11,0.46